Location: Almena Post Office
(39.8928°N, 99.7066°W)
Time: 14:02:53
(UTC+00:00)

PAYLOAD B - Pass Details

Date: 27 February 2020
Orbit: 848 x 872 km, 99.1° (Epoch: 04 April)

Event Time Altitude Azimuth Distance (km) Brightness Sun altitude
Rises 12:29:01 0° 11° (N) 3,450 7.5 -9.7°
Reaches altitude 10° 12:31:25 10° 9° (N) 2,505 6.7 -9.3°
Maximum altitude 12:36:56 68° 287° (WNW) 923 4.2 -8.2°
Drops below altitude 10° 12:42:22 10° 206° (SSW) 2,474 6.4 -7.2°
Sets 12:44:44 0° 204° (SSW) 3,404 7.2 -6.7°
